Home   Weather   Tórshavn   Past weeks

Flag for Faroe Islands Past Weather in Tórshavn, Faroe Islands — Yesterday and Last 2 Weeks

Now
45 °F

Passing clouds.


Feels Like: 39 °F
Forecast: 40 / 46 °F
Wind: 12 mph from West

Location: Soervaag / Vagar

Current Time: Jan 19, 2017 at 12:28:34 am

Latest Report: Jan 18, 2017 at 11:50 pm


Visibility: N/A

Pressure: 30.12 "Hg

Humidity: 81%

Dew Point: 39 °F

Location of TórshavnLocation

Past Weather in Tórshavn — Graph

°F

Tórshavn Temperature Yesterday

Maximum temperature yesterday: 48 °F (at 12:20 am)
Minimum temperature yesterday: 45 °F (at 8:22 am)
Average temperature yesterday: 46 °F

High & Low Weather Summary for the Past Weeks

 TemperatureHumidityPressure
High48 °F (Jan 8, 11:20 pm)100% (Jan 5, 4:50 pm)30.45 "Hg (Jan 5, 4:50 pm)
Low25 °F (Jan 14, 8:50 am)47% (Jan 13, 12:50 pm)28.80 "Hg (Jan 10, 11:50 pm)
Average39 °F82%29.76 "Hg
* Reported Jan 3 10:20 pm — Jan 18 10:50 pm, Tórshavn, Weather by CustomWeather, © 2017

Note: Actual official high and low records may vary slightly from our data, if they occured in-between our weather recording intervals... More about our weather records

Advertising

Tórshavn Weather History for the Previous 24 Hours

Scroll right to see more
 ConditionsComfort  
Time TempWeatherWind HumidityBarometerVisibility
10:50 pm
Wed, Jan 18
45 °FOvercast.10 mph76%30.12 "HgN/A
10:20 pm45 °FOvercast.17 mph76%30.12 "HgN/A
9:50 pm45 °FPassing clouds.18 mph71%30.12 "HgN/A
9:20 pm45 °FPassing clouds.15 mph76%30.12 "HgN/A
8:50 pm45 °FPassing clouds.12 mph81%30.12 "HgN/A
8:20 pm45 °FPassing clouds.12 mph76%30.12 "HgN/A
7:50 pm45 °FPassing clouds.13 mph76%30.12 "HgN/A
7:20 pm45 °FPassing clouds.14 mph76%30.12 "HgN/A
6:50 pm45 °FPassing clouds.20 mph71%30.12 "HgN/A
6:20 pm45 °FPassing clouds.17 mph76%30.12 "HgN/A
5:50 pm45 °FPassing clouds.15 mph76%30.12 "HgN/A
5:20 pm45 °FPassing clouds.21 mph71%30.12 "HgN/A
4:50 pm45 °FPassing clouds.22 mph71%30.12 "HgN/A
4:20 pm45 °FPassing clouds.20 mph76%30.09 "HgN/A
3:50 pm45 °FPassing clouds.24 mph71%30.09 "HgN/A
3:20 pm45 °FPartly sunny.20 mph76%30.09 "HgN/A
2:50 pm45 °FPartly sunny.20 mph81%30.09 "HgN/A
2:20 pm45 °FPartly sunny.21 mph76%30.07 "HgN/A
1:54 pm45 °FPassing clouds.18 mph76%30.07 "HgN/A
1:21 pm45 °FPassing clouds.22 mph76%30.07 "HgN/A
12:50 pm45 °FScattered clouds.20 mph81%30.07 "HgN/A
12:21 pm45 °FPartly sunny.21 mph76%30.04 "HgN/A
11:52 am45 °FPartly sunny.23 mph71%30.04 "HgN/A
11:22 am45 °FBroken clouds.21 mph71%30.04 "HgN/A
10:50 am45 °FBroken clouds.22 mph71%30.01 "HgN/A
10:03 am45 °FPartly sunny.22 mph71%30.01 "HgN/A
9:22 am45 °FPassing clouds.20 mph71%29.98 "HgN/A
8:53 am45 °FOvercast.21 mph71%29.98 "HgN/A
8:22 am45 °FOvercast.21 mph76%29.95 "HgN/A
7:51 am46 °FDrizzle. Overcast.21 mph71%29.92 "HgN/A
7:20 am46 °FDrizzle. Overcast.22 mph82%29.92 "HgN/A
6:50 am46 °FOvercast.14 mph82%29.92 "Hg6 mi
6:20 am48 °FPassing clouds.14 mph76%29.89 "Hg6 mi
5:50 am48 °FSprinkles. Passing clouds.9 mph82%29.86 "Hg6 mi
5:20 am48 °FPassing clouds.9 mph94%29.86 "Hg5 mi
4:50 am48 °FSprinkles. Passing clouds.9 mph94%29.86 "Hg2 mi
4:20 am48 °FSprinkles. Fog.12 mph94%29.86 "Hg2 mi
3:50 am48 °FDrizzle. Fog.14 mph94%29.86 "Hg2 mi
3:20 am48 °FDrizzle. Fog.14 mph94%29.86 "Hg1 mi
2:50 am46 °FLight rain. Fog.15 mph100%29.86 "Hg2 mi
2:20 am46 °FLight rain. Fog.14 mph100%29.86 "Hg1 mi
1:50 am46 °FLight rain. Fog.17 mph100%29.86 "Hg2 mi
1:20 am46 °FSprinkles. Fog.17 mph100%29.86 "Hg2 mi
12:50 am46 °FSprinkles. Fog.16 mph100%29.86 "Hg2 mi
12:20 am48 °FSprinkles. Fog.17 mph94%29.86 "Hg2 mi
Weather by CustomWeather, © 2017

See weather overviewHow to use our weather pages